Location: Burleson Alternative School
(32.5290°N, 97.3406°W)
Time: 07:56:26
(UTC+00:00)

Tiros 1 despin weight - Pass Details

Date: 16 November 2024
Orbit: 558 x 596 km, 48.2° (Epoch: 09 December)

Event Time Altitude Azimuth Distance (km) Brightness Sun altitude
Exits shadow 11:08:00 12° 4° (N) 1,837 ? -23.7°
Drops below altitude 10° 11:08:43 10° 13° (NNE) 1,935 ? -23.5°
Sets 11:12:16 0° 43° (NE) 2,819 ? -22.8°
